Location: Tel Aviv
(32.0670°N, 34.7670°E)
Time: 13:13:49
(UTC+03:00)

Explorer 11/Cluster Stage 4 - Pass Details

Date: 13 September 2024
Orbit: 464 x 1208 km, 28.8° (Epoch: 05 October)

Event Time Altitude Azimuth Distance (km) Brightness Sun altitude
Rises 12:41:18 0° 275° (W) 4,108 10.3 61.4°
Reaches altitude 10° 12:44:24 10° 268° (W) 3,142 9.8 61.4°
Maximum altitude 12:51:43 41° 202° (SSW) 1,608 9.8 61.2°
Drops below altitude 10° 12:58:26 10° 134° (SE) 2,870 9.8 61.0°
Sets 13:01:08 0° 127° (SE) 3,722 10.2 60.9°
